THOR ALTAIR R/B, 1583

Orbit data source: Space-Track

THOR ALTAIR R/B, 1583 is space debris in SSO originally from a launch on Fri, 10 Sep 1965 UTC launched from the Air Force Western Test Range (AFWTR). Debris objects in space refer to the collection of defunct objects orbiting the Earth. Examples of debris include non-operational satellites, rocket bodies, and fragments generated from explosions, collisions, or faulty payload assembly.

Loading next visibility...
Identifier
1583, 1965-072D
Orbit
SSO
Country
Flag of USUS
Related business
Manufacturer
UTC
Mission
Spacecraft
Bus & Motor
FW4, Unknown motor
Mass
25 kg wet, 25 kg dry
Launch date (UTC)
1965-09-10 (61 years ago)
Launch vehicle
Unknown
Launch site
Air Force Western Test Range (AFWTR)
Object type
Payload
Rocket body
Debris
Shape & HBR
CYL, 1.1 m
Radar Cross Section
Medium (>0.1 m² and <1 m²)

Expand to show TLE details & history
Last TLE update: 21 hours ago

TLE from 21 hours ago
0 THOR ALTAIR R/B
1 01583U 65072D   26264.52724324  .00000738  00000-0  12882-3 0  9998
2 01583  98.3726 141.0991 0138284 291.9806  66.6751 14.65284906181051
Epoch: 2026-09-21T12:39Z
TLE epoch observation values (Epoch: 2026-09-21T12:39:13.815Z)
Latitude
-0.00002°
Longitude
-49.11425°
Altitude
641.663 km
Speed
7.557 km/s
True Right ascension
09h 24m 23s
True Declination
0° 00' 00"
Sunlit
Object was in daylight at epoch
Visualization orbit readout
Latitude
Unknown
Longitude
Unknown
Altitude
Unknown
Speed
Unknown
Apparent Right ascension
Unknown
Apparent Declination
Unknown
Sunlit
N/A
Visualization observer readout
Local Sidereal Time
02:34:38
Azimuth
Unknown
Elevation
Unknown
Doppler factor
Unknown
Orbital elements
Apogee altitude
770.751 km
Perigee altitude
575.733 km
Semi-major axis
7,051.379 km
Eccentricity
0.01383
Inclination
98.3726°
RAAN
141.0991°
Arg. of periapsis
291.9806°
True anomaly
68.14008°
Mean anomaly
66.6751°
Eccentric anomaly
67.4066°
Mean motion
3.66549 °/min
Orbital period
98.21 mins
BSTAR
0.00012882
Loading maneuver chart data...
Computing Atmospheric mass density...
Loading historical data...
Loading historical data...
Loading historical data...
Loading historical data...
Loading historical data...
Loading historical data...
Loading historical data...

Documentation

Showing up to 5 results
|